Back to catalog

STARLINK-4019

AliveCommunicationsVLEO
NORAD 52598·PAYLOAD·🇺🇸 United States

Launched May 14, 2022 from Cape Canaveral Space Force Station

Loading…

Next Passes (next 24 hours)

TLE

FreshSource: CelesTrak SupGP

Epoch: Sep 14, 2026, 13:57 UTC

1 52598C 22052A   26257.58173611  .00051100  00000+0  14621-2 0  2573
2 52598  53.1564 143.9334 0001167  96.7353 296.2704 15.35370085    18

Track STARLINK-4019 in real time with AllMySat

Download on the App Store